Fort Campbell, KY

7:26 AM CDT on June 18, 2018 (GMT -0500)
Campbell Army Air Field

Weather History for KHOP - August, 2017

Change the Weather History Date:

Sunday, August 20, 2017

  Actual Average Record
Temperature  
Mean Temperature 79 °F -  
Max Temperature 92 °F 85 °F 97 °F (2007)
Min Temperature 67 °F 66 °F 58 °F (2012)
Cooling Degree Days 14    
Growing Degree Days 29 (Base 50)    
Moisture  
Dew Point 69 °F    
Average Humidity 87    
Maximum Humidity 100    
Minimum Humidity 42    
Precipitation  
Precipitation 0.00 in - - ()
Sea Level Pressure  
Sea Level Pressure 30.04 in    
Wind  
Wind Speed 1 mph (SE)    
Max Wind Speed 9 mph    
Max Gust Speed -    
Visibility 6 miles    
Events Fog    
Averages and records for this station are not official NWS values.
T = Trace of Precipitation, MM = Missing Value Source: NWS Daily Summary

Daily Weather History Graph

Daily Weather History Graph

Search for Another Location

Airport or City:

Astronomy

Aug. 20, 2017 Rise Set
Actual Time 6:11 AM CDT 7:34 PM CDT
Civil Twilight 5:44 AM CDT 8:01 PM CDT
Nautical Twilight 5:12 AM CDT 8:33 PM CDT
Astronomical Twilight 4:37 AM CDT 9:07 PM CDT
Moon 4:49 AM CDT (8/20) 6:57 PM CDT (8/20)
Length of Visible Light 14h 16m
Length of Day
13h 22m
Waning Crescent, 2% of the Moon is Illuminated
Aug 20
Waning Crescent
Aug 21
New
Aug 29
First Quarter
Sep 6
Full
Sep 13
Last Quarter

Hourly Weather History & Observations

Time (CDT) Temp. Heat Index Dew Point Humidity Pressure Visibility Wind Dir Wind Speed Gust Speed Precip Events Conditions
12:58 AM 74.3 °F - 70.7 °F 88% 29.99 in 10.0 mi Calm Calm - N/A   Clear
1:58 AM 74.3 °F - 72.0 °F 92% 29.99 in 10.0 mi Calm Calm - N/A   Clear
2:46 AM 69.8 °F - 69.8 °F 100% 29.99 in 9.0 mi Calm Calm - N/A   Clear
2:58 AM 70.0 °F - 70.0 °F 100% 29.99 in 9.0 mi Calm Calm - N/A   Clear
3:00 AM 69.8 °F - 69.8 °F 100% 29.99 in 9.0 mi Calm Calm - N/A   Clear
3:58 AM 71.1 °F - 70.3 °F 98% 30.00 in 10.0 mi Calm Calm - N/A   Clear
4:58 AM 70.3 °F - 70.0 °F 99% 30.01 in 10.0 mi Calm Calm - N/A   Clear
5:41 AM 69.8 °F - 69.8 °F 100% 30.02 in 9.0 mi Calm Calm - N/A   Clear
5:47 AM 68.0 °F - 68.0 °F 100% 30.02 in 2.5 mi Calm Calm - N/A   Clear
5:49 AM 68.0 °F - 68.0 °F 100% 30.02 in 1.8 mi Calm Calm - N/A   Clear
5:52 AM 68.0 °F - 68.0 °F 100% 30.02 in 1.2 mi ENE 3.5 mph - N/A   Clear
5:55 AM 68.0 °F - 68.0 °F 100% 30.02 in 1.0 mi East 3.5 mph - N/A   Clear
5:57 AM 68.0 °F - 68.0 °F 100% 30.02 in 1.2 mi East 3.5 mph - N/A   Clear
5:58 AM 68.0 °F - 68.0 °F 100% 30.02 in 1.2 mi East 3.5 mph - N/A   Clear
5:59 AM 68.0 °F - 68.0 °F 100% 30.02 in 1.5 mi East 3.5 mph - N/A   Clear
6:00 AM 68.0 °F - 68.0 °F 100% 30.02 in 1.5 mi East 3.5 mph - N/A   Clear
6:02 AM 68.0 °F - 68.0 °F 100% 30.03 in 2.0 mi ESE 3.5 mph - N/A   Clear
6:06 AM 68.0 °F - 68.0 °F 100% 30.03 in 3.0 mi Calm Calm - N/A   Clear
6:11 AM 69.8 °F - 69.8 °F 100% 30.03 in 2.0 mi Calm Calm - N/A   Clear
6:13 AM 69.8 °F - 69.8 °F 100% 30.03 in 1.5 mi Calm Calm - N/A   Clear
6:14 AM 69.8 °F - 69.8 °F 100% 30.03 in 1.2 mi East 3.5 mph - N/A   Clear
6:15 AM 69.8 °F - 69.8 °F 100% 30.03 in 1.0 mi Calm Calm - N/A   Clear
6:16 AM 69.8 °F - 69.8 °F 100% 30.03 in 0.8 mi Calm Calm - N/A   Clear
6:17 AM 69.8 °F - 69.8 °F 100% 30.04 in 0.8 mi Calm Calm - N/A   Clear
6:18 AM 69.8 °F - 69.8 °F 100% 30.04 in 0.5 mi Calm Calm - N/A Fog Fog
6:19 AM 69.8 °F - 69.8 °F 100% 30.04 in 0.5 mi Calm Calm - N/A Fog Fog
6:27 AM 69.8 °F - 69.8 °F 100% 30.04 in 0.8 mi Calm Calm - N/A   Clear
6:30 AM 69.8 °F - 69.8 °F 100% 30.04 in 0.8 mi Calm Calm - N/A   Clear
6:32 AM 69.8 °F - 69.8 °F 100% 30.04 in 1.0 mi Calm Calm - N/A   Clear
6:33 AM 69.8 °F - 69.8 °F 100% 30.04 in 1.0 mi Calm Calm - N/A   Clear
6:34 AM 69.8 °F - 69.8 °F 100% 30.04 in 1.2 mi Calm Calm - N/A   Clear
6:36 AM 69.8 °F - 69.8 °F 100% 30.04 in 1.5 mi Calm Calm - N/A   Clear
6:38 AM 69.8 °F - 69.8 °F 100% 30.04 in 2.5 mi Calm Calm - N/A   Clear
6:39 AM 69.8 °F - 69.8 °F 100% 30.04 in 3.0 mi Calm Calm - N/A   Clear
6:58 AM 67.3 °F - 67.3 °F 100% 30.05 in 5.0 mi Calm Calm - N/A   Clear
7:58 AM 73.8 °F - 71.4 °F 92% 30.06 in 10.0 mi Calm Calm - 0.00 in   Clear
8:58 AM 79.7 °F - 72.7 °F 79% 30.07 in 10.0 mi East 3.5 mph - N/A   Clear
9:58 AM 84.6 °F 89.7 °F 71.2 °F 64% 30.08 in 10.0 mi Calm Calm - N/A   Clear
10:58 AM 87.3 °F 94.0 °F 72.5 °F 61% 30.09 in 10.0 mi SW 4.6 mph - N/A   Clear
11:58 AM 89.2 °F 94.9 °F 70.7 °F 54% 30.08 in 10.0 mi Calm Calm - N/A   Clear
12:58 PM 89.8 °F 93.8 °F 68.2 °F 49% 30.07 in 10.0 mi South 4.6 mph - N/A   Clear
1:58 PM 90.5 °F 94.6 °F 68.5 °F 48% 30.05 in 10.0 mi SE 9.2 mph - N/A   Clear
2:58 PM 91.4 °F 94.9 °F 67.1 °F 45% 30.04 in 10.0 mi SW 9.2 mph - N/A   Scattered Clouds
3:58 PM 91.9 °F 94.5 °F 65.7 °F 42% 30.04 in 10.0 mi SW 6.9 mph - N/A   Clear
4:58 PM 90.7 °F 92.4 °F 64.4 °F 42% 30.04 in 10.0 mi WSW 8.1 mph - N/A   Clear
5:58 PM 88.5 °F 90.8 °F 66.0 °F 47% 30.04 in 10.0 mi South 4.6 mph - N/A   Clear
6:58 PM 86.9 °F 91.0 °F 68.9 °F 55% 30.03 in 10.0 mi Calm Calm - N/A   Clear
7:58 PM 82.9 °F 86.7 °F 69.6 °F 64% 30.04 in 10.0 mi ESE 3.5 mph - N/A   Clear
8:58 PM 79.5 °F - 69.1 °F 70% 30.07 in 10.0 mi Calm Calm - N/A   Clear
9:58 PM 77.7 °F - 70.0 °F 77% 30.10 in 10.0 mi Calm Calm - N/A   Clear
10:58 PM 75.6 °F - 70.2 °F 83% 30.11 in 10.0 mi Calm Calm - N/A   Clear
11:58 PM 75.0 °F - 70.0 °F 84% 30.10 in 10.0 mi Calm Calm - N/A   Clear